Home > Weather > Greenwich Borough > Past weeks

Flag for United Kingdom Past Weather in Greenwich Borough, England, United Kingdom — Yesterday and Last 2 Weeks

Now
54 °F

Clear.


Feels Like: 53 °F
Forecast: 56 / 69 °F
Wind: 5 mph from West

Location: Northolt

Current Time: Jun 25, 2016 at 4:23:08 AM

Latest Report: Jun 25, 2016 at 3:50 AM


Visibility: N/A

Pressure: 30.04 "Hg

Humidity: 88%

Dew Point: 50 °F

Location of Greenwich BoroughLocation

Past Weather in Greenwich Borough — Graph

°F

Greenwich Borough Temperature Yesterday

Maximum temperature yesterday: 72 °F (at 1:50 PM)
Minimum temperature yesterday: 54 °F (at 3:50 AM)
Average temperature yesterday: 62 °F

High & Low Weather Summary for the Past Weeks

 TemperatureHumidityPressure
High75 °F (Jun 10, 2:50 PM)100% (Jun 12, 11:50 AM)30.24 "Hg (Jun 12, 11:50 AM)
Low52 °F (Jun 15, 4:50 AM)38% (Jun 10, 12:50 PM)29.36 "Hg (Jun 14, 4:50 PM)
Average62 °F80%29.83 "Hg
* Reported Jun 10 2:50 AM — Jun 25 2:50 AM, Greenwich Borough, Weather by CustomWeather, © 2016

Note: Actual official high and low records may vary slightly from our data, if they occured in-between our weather recording intervals... More about our weather records

Advertising

Greenwich Borough Weather History for the Previous 24 Hours

Scroll right to see more
 ConditionsComfort  
Time TempWeatherWind HumidityBarometerVisibility
2:50 AM
Sat, Jun 25
55 °FPassing clouds.6 mph82%30.04 "HgN/A
1:50 AM57 °FPassing clouds.6 mph82%30.04 "HgN/A
12:50 AM57 °FClear.7 mph82%30.04 "Hg10 mi
11:50 PM
Fri, Jun 24
59 °FClear.6 mph77%30.07 "Hg10 mi
10:50 PM59 °FClear.5 mph72%30.04 "Hg10 mi
9:50 PM59 °FSunny.7 mph72%30.04 "Hg10 mi
8:50 PM61 °FScattered clouds.8 mph68%30.04 "HgN/A
7:50 PM64 °FScattered clouds.12 mph64%30.04 "HgN/A
6:50 PM63 °FSprinkles. Broken clouds.15 mph68%30.04 "HgN/A
5:50 PM68 °FBroken clouds.15 mph60%30.04 "HgN/A
4:50 PM70 °FScattered clouds.16 mph57%30.01 "HgN/A
3:50 PM68 °FScattered clouds.14 mph69%30.04 "HgN/A
2:50 PM68 °FSprinkles. Scattered clouds.16 mph56%30.04 "HgN/A
1:50 PM72 °FScattered clouds.15 mph57%30.04 "HgN/A
12:50 PM70 °FScattered clouds.10 mph60%30.07 "HgN/A
11:50 AM66 °FPartly sunny.10 mph64%30.07 "HgN/A
10:50 AM68 °FScattered clouds.10 mph64%30.07 "HgN/A
9:50 AM64 °FPassing clouds.9 mph78%30.07 "HgN/A
8:50 AM61 °FPassing clouds.12 mph83%30.07 "HgN/A
7:50 AM59 °FPassing clouds.7 mph82%30.07 "HgN/A
6:50 AM55 °FPassing clouds.6 mph94%30.07 "HgN/A
5:50 AM54 °FPassing clouds.6 mph94%30.04 "HgN/A
4:50 AM54 °FClear.7 mph94%30.04 "HgN/A
Weather by CustomWeather, © 2016

See weather overviewHow to use our weather pages